CZ-6A DEB

Satellite information

Favourite Embed

Satellite Type and Status

DEBRISIN ORBIT

Key statistics

Satellite CZ-6A DEB at a glance.

Uptime

495

Days in orbit

Revolutions

≈ 14.4

Per day

Orbit

LEO

Low Earth Orbit

Inclination

89.0

Latest

Satellite identification and parameters

Extended collection of information and parameters for CZ-6A DEB.

Object identification

Identified? True

Debris? True

Object name: CZ-6A DEB

International designator: 2024-140YW

Object number (NORAD): 61429

Object ID (CCSDS): 61429

Country: PEOPLES REPUBLIC OF CHINA (PRC)

Current information (Y/N): Y

RCS size: SMALL

Orbital parameters

Period: 100.019 minutes

Inclination: 88.9633 deg

SMA: 7137.53 km

Apoapsis: 861.106 km

Periapsis: 657.685 km

RAAN: 292.142 deg

Eccentricy: 0.0142501

Argument of periapsis: 293.4167 deg

Mean anomaly: 65.2103 deg

Mean motion: 14.39729211 rev/day

Mean motion (dot): 0.00011369 rev/day2

B* drag term: 0.0032155 1/REarth

Two-line elements (TLE)

Creation date: Dec. 12, 2025, 7:16 a.m.

Reference frame: TEME

Reference center: EARTH

Epoch: Dec. 11, 2025, 9:10 p.m. UTC

TLE line 0: 0 CZ-6A DEB

TLE line 1: 1 61429U 24140YW 25345.88213925 .00011369 00000-0 32155-2 0 9998

TLE line 2: 2 61429 88.9633 292.1420 0142501 293.4167 65.2103 14.39729211 68488

Live tracking on map

Real-time ground track for satellite CZ-6A DEB.

In-orbit conjunctions

A list of the most updated potential collisions computed for object CZ-6A DEB.

Target Orbit TCA Probability of collision Miss distance Type
CZ-2C R/B SSO 2025-04-17 20:27:34 0.0001915898 682.0 (m) ROCKET BODY
FENGYUN 1C DEB SSO 2025-02-19 19:09:45 0.0001328536 245.0 (m) DEBRIS
CZ-6A DEB LEO 2025-01-31 19:25:22 0.0002442508 115.0 (m) DEBRIS
CZ-6A DEB LEO 2025-01-06 09:32:31 0.0003695697 295.0 (m) DEBRIS
COSMOS 2251 DEB LEO 2024-11-20 09:28:33 0.0002252598 220.0 (m) DEBRIS

Associated space launch

18 Low Earth Orbit communication satellites with Ku, Q and V band payloads for the G60 constellation operated by Shanghai Spacecom Satellite Technology (SSST) with funding backed by the Shanghai local government. Initial constellation will consist of 1296 satellites by 2027 with long term plans to expand it to 12000 satellites.

CZ-6A DEB was lifted into orbit during the mission ‘Long March 6A | G60 Polar Group 01’, on board a Long March 6A space rocket.

The launch took place on Aug. 6, 2024, 6:42 a.m. from Launch Complex 9A.

For more information about the launch, click the button.

Launch to space Long March 6A | G60 Polar Group 01
Long March 6A | G60 Polar Group 01

Agency: N/A

Status: Launch Successful

Launch date: Aug. 6, 2024, 6:42 a.m. UTC

Rocket: Long March 6A

Launch pad: Launch Complex 9A

Location: Taiyuan Satellite Launch Center, People's Republic of China

...

Latest news about this satellite

News about space launch
Brightness of first Chinese broadband constellation satellites alarms astronomers

The first satellites of a Chinese broadband constellation are significantly brighter than those of Western systems, posing a new challenge for astronomers.

News about space launch
Chinese rocket stage breaks up into cloud of more than 700 pieces of space debris

HELSINKI — A Chinese Long March 6A rocket’s upper stage has fragmented into a cloud of over 700 pieces of space debris, adding to concerns about long-term orbital safety. China […]

News about space launch
China's Thousand Sails Megaconstellation Kicks Off with Dangerous Debris Field

China's Thousand Sails Megaconstellation Kicks Off with Dangerous Debris Field


Newsletter sign-up

Weekly statistics, charts and insights to help you stay on top of the space industry.